TimeEST,TemperatureF,Dew PointF,Humidity,Sea Level PressureIn,VisibilityMPH,Wind Direction,Wind SpeedMPH,Gust SpeedMPH,PrecipitationIn,Events,Conditions,WindDirDegrees,DateUTC
12:53 AM,51.1,30.9,46,30.19,10.0,ENE,4.6,-,N/A,,Mostly Cloudy,70,2013-02-22 05:53:00
1:53 AM,50.0,32.0,50,30.19,10.0,East,3.5,-,N/A,,Partly Cloudy,80,2013-02-22 06:53:00
2:53 AM,48.9,30.9,50,30.24,10.0,ENE,3.5,-,N/A,,Mostly Cloudy,70,2013-02-22 07:53:00
3:53 AM,48.9,27.0,43,30.23,10.0,Variable,5.8,-,N/A,,Overcast,0,2013-02-22 08:53:00
4:53 AM,48.0,26.1,42,30.21,10.0,East,8.1,-,N/A,,Overcast,80,2013-02-22 09:53:00
5:53 AM,48.0,27.0,44,30.21,10.0,ENE,8.1,-,N/A,,Overcast,70,2013-02-22 10:53:00
6:53 AM,43.0,34.0,71,30.22,6.0,ENE,5.8,-,0.03,Rain,Rain,70,2013-02-22 11:53:00
7:53 AM,41.0,36.0,82,30.23,5.0,ENE,3.5,-,0.06,Rain,Light Rain,70,2013-02-22 12:53:00
8:53 AM,39.9,37.0,89,30.22,6.0,Variable,5.8,-,0.05,Rain,Light Rain,0,2013-02-22 13:53:00
9:40 AM,41.0,37.4,87,30.22,10.0,East,3.5,-,0.00,,Overcast,80,2013-02-22 14:40:00
9:53 AM,41.0,37.0,86,30.23,10.0,Variable,5.8,-,0.00,,Overcast,0,2013-02-22 14:53:00
10:53 AM,41.0,37.0,86,30.22,10.0,Variable,3.5,-,N/A,,Overcast,0,2013-02-22 15:53:00
11:53 AM,41.0,36.0,82,30.23,10.0,ENE,4.6,-,N/A,,Overcast,70,2013-02-22 16:53:00
12:48 PM,41.0,37.4,87,30.21,5.0,Calm,Calm,-,0.02,Rain,Light Rain,0,2013-02-22 17:48:00
12:53 PM,41.0,37.9,89,30.20,4.0,ENE,4.6,-,0.02,Rain,Light Rain,70,2013-02-22 17:53:00
1:15 PM,41.0,37.4,87,30.19,4.0,NE,4.6,-,0.01,,Overcast,50,2013-02-22 18:15:00
1:33 PM,39.2,37.4,93,30.17,1.8,Variable,5.8,-,0.01,Rain,Light Rain,0,2013-02-22 18:33:00
1:44 PM,39.2,37.4,93,30.18,3.0,Variable,4.6,-,0.01,Rain,Light Rain,0,2013-02-22 18:44:00
1:53 PM,39.9,37.9,93,30.18,6.0,Calm,Calm,-,0.01,,Overcast,0,2013-02-22 18:53:00
2:03 PM,39.2,37.4,93,30.17,5.0,ENE,4.6,-,N/A,,Overcast,70,2013-02-22 19:03:00
2:38 PM,41.0,39.2,93,30.17,2.0,Calm,Calm,-,0.01,Rain,Light Rain,0,2013-02-22 19:38:00
2:48 PM,41.0,37.4,87,30.17,5.0,ENE,3.5,-,0.01,Rain,Light Rain,60,2013-02-22 19:48:00
2:53 PM,41.0,37.9,89,30.17,5.0,ENE,5.8,-,0.01,,Overcast,70,2013-02-22 19:53:00
3:13 PM,41.0,37.4,87,30.16,2.0,Calm,Calm,-,0.00,Rain,Light Rain,0,2013-02-22 20:13:00
3:30 PM,39.2,37.4,93,30.18,5.0,Variable,5.8,-,0.00,,Overcast,0,2013-02-22 20:30:00
3:53 PM,41.0,37.9,89,30.18,3.0,Variable,3.5,-,0.00,,Overcast,0,2013-02-22 20:53:00
4:15 PM,39.2,37.4,93,30.17,2.5,Variable,3.5,-,N/A,,Overcast,0,2013-02-22 21:15:00
4:53 PM,41.0,39.0,93,30.16,2.5,NE,3.5,-,0.01,,Overcast,50,2013-02-22 21:53:00
5:24 PM,41.0,39.2,93,30.15,4.0,ENE,4.6,-,0.00,,Overcast,60,2013-02-22 22:24:00
5:53 PM,41.0,39.0,93,30.16,6.0,NNE,6.9,-,0.00,,Overcast,30,2013-02-22 22:53:00
6:53 PM,39.9,37.9,93,30.15,4.0,Variable,4.6,-,N/A,,Overcast,0,2013-02-22 23:53:00
7:14 PM,39.2,39.2,100,30.15,4.0,Variable,5.8,-,N/A,,Overcast,0,2013-02-23 00:14:00
7:53 PM,39.9,37.9,93,30.15,3.0,NE,6.9,-,N/A,,Overcast,50,2013-02-23 00:53:00
8:53 PM,39.9,37.9,93,30.17,3.0,Variable,4.6,-,N/A,,Overcast,0,2013-02-23 01:53:00
9:09 PM,39.2,39.2,100,30.16,2.5,Variable,3.5,-,N/A,,Overcast,0,2013-02-23 02:09:00
9:53 PM,39.9,39.0,97,30.16,2.0,Calm,Calm,-,N/A,,Overcast,0,2013-02-23 02:53:00
10:28 PM,39.2,39.2,100,30.16,3.0,NNE,3.5,-,N/A,,Overcast,20,2013-02-23 03:28:00
10:45 PM,39.2,39.2,100,30.15,2.5,Calm,Calm,-,N/A,,Overcast,0,2013-02-23 03:45:00
10:53 PM,39.9,39.0,97,30.15,2.5,NNE,4.6,-,N/A,,Overcast,20,2013-02-23 03:53:00
11:03 PM,39.2,37.4,93,30.14,3.0,Variable,3.5,-,N/A,,Overcast,0,2013-02-23 04:03:00
11:17 PM,39.2,37.4,93,30.13,2.5,Variable,3.5,-,N/A,,Overcast,0,2013-02-23 04:17:00
11:53 PM,39.0,37.9,96,30.12,2.0,NE,4.6,-,N/A,,Overcast,50,2013-02-23 04:53:00